Regional Weather Roundup
Issued by NWS Northern Indiana

Home | Current Version | Previous Version | Text Only | Print | Product List | Glossary On
Versions: 1 2 3 4 5 6 7 8 9 10 11 12 13 14 15 16 17 18 19 20 21 22 23 24 25 26 27 28 29 30 31 32 33 34 35 36 37 38 39 40 41 42 43 44 45 46 47 48 49 50
000
ASUS43 KIWX 031810
RWRIWX

KIWX WEATHER ROUNDUP
NATIONAL WEATHER SERVICE NORTHERN INDIANA
100 PM EST TUE MAR 03 2015

NOTE: "FAIR" INDICATES FEW OR NO CLOUDS BELOW 12,000 FEET WITH NO
SIGNIFICANT WEATHER AND/OR OBSTRUCTIONS TO VISIBILITY.

* THESE STATIONS ARE NOT UNDER NWS QUALITY CONTROL. THEY ALSO MAY NOT
  REPORT WEATHER SUCH AS PRECIPITATION OR FOG.

INZ001>027-031900-
NORTHERN INDIANA

CITY           SKY/WX    TMP DP  RH WIND       PRES   REMARKS
GARY*          CLOUDY    34  30  86 S16       29.67F FOG     WCI  23
VALPARAISO     MIX PCPN  32  32 100 S20G26    29.68F FOG     WCI  20
6HR MIN TEMP:  25; 6HR MAX TEMP:  32; 6HR PCP:  0.01;

MICHIGAN CITY* CLOUDY    32  28  86 S15G24    29.67F FOG     WCI  22
LAPORTE*       DRIZZLE   33  33  98 S16       29.69F WCI  23
6HR MIN TEMP:  28; 6HR MAX TEMP:  33;

KNOX*            N/A     32  27  80 S9        29.71S WCI  24
SOUTH BEND     MIX PCPN  33  29  85 S18       29.69F FOG     WCI  22
6HR MIN TEMP:  25; 6HR MAX TEMP:  33; 6HR PCP:  0.02;

ELKHART*       DRIZZLE   32  28  86 S9G16     29.71F WCI  24
GOSHEN         LGT SNOW  32  29  88 S18       29.72F VSB 1   WCI  20
6HR MIN TEMP:  24; 6HR MAX TEMP:  32; 6HR PCP:  0.02;

MONTICELLO*    MIX PCPN  32  32  99 S10G16    29.74F WCI  24
6HR MIN TEMP:  26; 6HR MAX TEMP:  32; 6HR PCP:  0.02;

LOGANSPORT*    DRIZZLE   32  32 100 S7        29.76F WCI  26
ROCHESTER*     MIX PCPN  34  34 100 S10       29.74F WCI  26
WARSAW*        DRIZZLE   32  30  93 S12       29.72F WCI  23
ANGOLA*        CLOUDY    28  27  93 S10       29.71F WCI  19
FORT WAYNE     FRZ DRZL  31  29  92 S20       29.75F FOG     WCI  19
6HR MIN TEMP:  25; 6HR MAX TEMP:  31; 6HR PCP:  0.04;

HUNTINGTON*    CLOUDY    32  28  84 S8        29.75F FOG     WCI  25
6HR MIN TEMP:  26; 6HR MAX TEMP:  32; 6HR PCP:  0.03;

PERU/GRISSOM   CLOUDY    33  32  94 SW10G20   29.74F WCI  25
6HR MIN TEMP:  26; 6HR MAX TEMP:  33; 6HR PCP:  0.08;

MARION*        CLOUDY    32  31  97 S7        29.76F FOG     WCI  26
6HR MIN TEMP:  -5; 6HR MAX TEMP:  52; 6HR PCP:  0.08;


$$
INZ028>050-031900-
CENTRAL INDIANA

CITY           SKY/WX    TMP DP  RH WIND       PRES   REMARKS
LAFAYETTE      CLOUDY    35  33  92 SW9       29.76F FOG     WCI  28
6HR MIN TEMP:  27; 6HR MAX TEMP:  35; 6HR PCP:  0.01;

KOKOMO*        CLOUDY    34  30  86 S14G21    29.75F WCI  24
6HR MIN TEMP:  27; 6HR MAX TEMP:  34; 6HR PCP:  0.06;

MUNCIE*        LGT SNOW  34  32  92 S12G22    29.76F FOG     WCI  25
6HR MIN TEMP:  28; 6HR MAX TEMP:  34; 6HR PCP:  0.15;

INDIANAPOLIS   DRIZZLE   35  33  92 S13       29.78F FOG     WCI  26
6HR MIN TEMP:  28; 6HR MAX TEMP:  35; 6HR PCP:  0.14;


$$
MIZ043>046-050>051-056>058-064>065-071>073-077>080-031900-
SOUTHWEST LOWER MICHIGAN

CITY           SKY/WX    TMP DP  RH WIND       PRES   REMARKS
BATTLE CREEK   CLOUDY    30  25  81 S20       29.64F HAZE    WCI  17
6HR MIN TEMP:  23; 6HR MAX TEMP:  30; 6HR PCP:  0.12;

BENTON HARBOR  CLOUDY    31  29  92 S10G21    29.67F FOG     WCI  22
6HR MIN TEMP:  22; 6HR MAX TEMP:  31; 6HR PCP:  0.10;

COLDWATER*     LGT SNOW  29  26  89 S14G22    29.69F WCI  18
6HR MIN TEMP:  21; 6HR MAX TEMP:  29;

HILLSDALE*     MIX PCPN  28  26  94 S13G18    29.71F WCI  17
6HR MIN TEMP:  21; 6HR MAX TEMP:  28;

HOLLAND        FRZ RAIN  31  27  85 S14G20    29.67S FOG     WCI  21
6HR MIN TEMP:  24; 6HR MAX TEMP:  30; 6HR PCP:  0.22;

GRAND RAPIDS   FRZ DRZL  28  25  88 S12       29.65F FOG     WCI  18
6HR MIN TEMP:  22; 6HR MAX TEMP:  28; 6HR PCP:  0.35;

KALAMAZOO      FRZ RAIN  29  25  85 S13G23    29.68F WCI  19
6HR MIN TEMP:  22; 6HR MAX TEMP:  29;

STURGIS*       MIX PCPN  28  27  93 S12       29.70F WCI  18
THREE RIVERS*  CLOUDY    30  27  90 S13G18    29.70F FOG     WCI  20
6HR MIN TEMP:  23; 6HR MAX TEMP:  30;


$$
OHZ001>008-015>018-024>025-031900-
NORTHWEST OHIO

CITY           SKY/WX    TMP DP  RH WIND       PRES   REMARKS
WAUSEON*       LGT RAIN  30  27  86 S22G29    29.74F WCI  17
DEFIANCE       FRZ RAIN  31  28  89 S15G21    29.76F FOG     WCI  20
6HR MIN TEMP:  24; 6HR MAX TEMP:  31; 6HR PCP:  0.02;

FINDLAY        LGT SNOW  32  28  85 S18       29.79F FOG     WCI  20
6HR MIN TEMP:  25; 6HR MAX TEMP:  32; 6HR PCP:  0.04;

TOLEDO EXPRESS FRZ RAIN  29  26  89 S9G17     29.77F FOG     WCI  20
6HR MIN TEMP:  21; 6HR MAX TEMP:  29; 6HR PCP:  0.05;

TOLEDO METCALF CLOUDY    32  25  75 S17       29.81F WCI  21
6HR MIN TEMP:  23; 6HR MAX TEMP:  32; 6HR PCP:  0.04;

LIMA           MIX PCPN  33  29  85 S18       29.79F FOG     WCI  22
6HR MIN TEMP:  26; 6HR MAX TEMP:  33; 6HR PCP:  0.19;


$$
AND FOR LAKE MICHIGAN COASTAL AND OPEN LAKE BUOY OBSERVATIONS

STATION/POSITION TEMP    WIND        PRES    VSBY  WAVE
                 AIR SEA DIR/SP/G                  HT/PER
                 (F)     (DEG/KT/KT) (MB)    (MI)  (FT/S)
CALUMET HARBOR    32     190/ 13/ 17 1003.3F
MICHIGAN CITY     31     160/ 10/ 15   N/A
SAINT JOSEPH      32     170/  6/ 13 1005.8R

$$
&&



USA.gov is the U.S. government's official web portal to all federal, state and local government web resources and services.